Weather in Mah贸n

Spain     39藲53鈥13鈥砃   4藲15鈥35鈥矱
temp.,
掳C
wind,
m/s
gust,
m/s
humid.,
%
clouds,
%
prec.,
mm/h
press.,
hPa
HPBL,
m
16 january, sat
sat1601:00+10藲n15186978 1.0 1020894
04:00+10藲n1718682 0.0 10201181
07:00+9藲n15186038 0.0 10211517
10:00+10藲n13165912 0.0 10231230
13:00+11藲n1418536 0.0 10241343
16:00+12藲nw912620 0.0 10241383
19:00+10藲nw58760 0.0 1025620
22:00+9藲wnw58790 0.0 1026503
17 january, sun
sun1701:00+9藲wnw477527 0.0 1026395
04:00+9藲wsw57755 0.0 1024394
07:00+9藲wsw46783 0.0 1024271
10:00+11藲wsw47710 0.0 1025350
13:00+14藲wnw79620 0.0 1024723
16:00+13藲w710670 0.0 1023789
19:00+11藲nw45810 0.0 1023277
22:00+11藲nw24751 0.0 1024467
18 january, mon
mon1801:00+11藲nnw47771 0.0 1025507
04:00+11藲nnw69590 0.0 1024543
07:00+11藲n68630 0.0 1024557
10:00+12藲n68630 0.0 1026848
13:00+13藲n676323 0.0 1027766
16:00+12藲nne55662 0.0 1026608
19:00+11藲nne227033 0.0 1027190
22:00+10藲wsw227531 0.0 1027139
19 january, tue
tue1901:00+9藲sw338015 0.0 1027120
04:00+10藲sw35830 0.0 1026224
07:00+10藲sw34826 0.0 1026153
10:00+13藲s357451 0.1 1026390
13:00+14藲s677357 0.2 1025838
16:00+14藲s798055 0.1 1024776
19:00+12藲s7108834 0.1 1023464
22:00+12藲s610890 0.0 1023417
20 january, wed
wed2001:00+12藲s69880 0.0 1022369
04:00+12藲s610864 0.0 1020356
07:00+12藲s6108526 0.0 1019335
10:00+14藲s8127814 0.0 1018537
13:00+15藲ssw8126740 0.0 1016549
16:00+14藲ssw71172100 0.0 1014497
19:00+14藲ssw81374100 0.0 1013457
22:00+14藲ssw71370100 0.0 1013645